Location: Newark
(46.7000°N, 60.6000°W)
Time: 10:13:01
(UTC+00:00)

Transit 2A Rocket - Pass Details

Date: 04 November 2020
Orbit: 588 x 915 km, 66.7° (Epoch: 23 November)

Event Time Altitude Azimuth Distance (km) Brightness Sun altitude
Rises 10:49:41 0° 175° (S) 3,534 8.8 -0.8°
Reaches altitude 10° 10:52:36 10° 163° (SSE) 2,595 8.4 -0.4°
Maximum altitude 10:57:31 26° 109° (ESE) 1,683 8.2 0.4°
Drops below altitude 10° 11:02:19 10° 55° (NE) 2,532 8.2 1.2°
Sets 11:05:06 0° 43° (NE) 3,432 8.6 1.6°
